Wind_Gust
10 8 7 8 7 11 8 7 8 9 9 12 11 12 24 13 20 15 18 7 6 10 9 11 16 26 29 27 28 24 18 16 9 11 12 22 15 25 28 27 25 21 19 19 19 19 20 20 20 19 18 19 19 19 19 21 21 21 21 20 20 21 21 21 21 20 19 18 16 15 16 16 16 16 15 16 16 15 15 16 17 17 17 17 16 15 14 16 17 16 15 16 16 16 16 18 18
10 9 10 8 10 4 7 7 8 4 8 8 20 17 24 22 16 11 11 12 12 11 14 13 16 23 29 23 17 27 28 23 20 26 24 21 22 23 25 25 24 23 17 17 18 18 18 20 20 19 19 18 19 19 20 20 20 21 22 21 21 20 21 21 21 20 19 18 16 15 16 16 16 16 15 15 15 14 13 13 15 16 16 16 15 15 14 15 15 14 15 17 17 16 17 17 17
9 11 13 9 12 8 10 7 8 6 7 11 23 22 16 19 19 5 21 17 13 11 9 16 23 21 25 23 29 23 16 17 21 20 24 23 25 18 23 25 22 21 18 16 17 16 16 19 20 19 19 19 19 20 20 20 20 20 21 21 21 21 21 21 20 19 19 18 17 16 16 16 15 16 16 15 14 13 12 12 14 14 14 13 12 12 13 15 13 12 15 16 16 17 16 16 15
8 9 9 6 7 9 6 6 6 9 10 13 22 12 12 9 12 17 11 15 15 7 10 16 20 14 27 29 24 22 18 20 18 19 26 17 22 23 24 24 21 20 16 16 16 16 15 22 20 19 19 19 20 20 20 20 20 20 21 20 21 20 20 20 20 19 19 18 17 16 16 15 16 16 15 15 14 13 12 11 12 13 13 12 9 8 13 13 12 11 16 15 16 15 15 15 14
8 8 8 11 7 7 7 8 9 9 14 17 16 13 11 6 9 18 9 6 10 4 6 17 23 20 23 22 14 16 14 16 17 12 25 20 21 24 24 24 22 19 17 16 16 16 17 24 20 18 19 20 20 20 20 20 20 20 20 20 20 20 19 19 19 19 19 18 18 17 16 16 16 16 16 16 13 12 12 11 9 10 10 9 8 9 10 11 11 13 15 15 16 16 14 14 13
11 10 9 9 10 10 12 9 10 13 17 18 19 14 8 10 15 8 17 6 12 5 7 6 21 12 19 16 19 14 7 11 15 15 22 21 26 24 24 22 22 19 18 16 16 15 17 20 20 19 18 19 19 20 20 20 20 19 20 20 19 19 19 19 18 18 19 19 17 17 17 17 16 17 16 16 15 14 14 13 11 11 11 11 12 10 12 12 13 16 15 13 15 15 15 14 13
10 5 9 7 14 8 5 7 11 12 21 19 23 18 8 13 11 10 6 5 13 5 6 22 28 27 25 19 21 26 15 13 12 18 17 20 21 20 22 24 20 20 19 19 17 17 18 20 20 19 18 19 19 20 21 20 20 20 20 19 19 19 19 19 17 17 18 17 17 17 17 16 17 16 16 15 15 14 14 12 13 12 13 12 12 14 16 17 17 17 16 14 14 15 14 14 12
12 6 6 7 9 9 7 10 14 13 20 17 17 14 8 12 4 13 10 11 8 8 13 18 20 31 17 12 18 18 30 28 23 21 25 18 19 12 20 22 22 22 19 18 17 17 22 20 20 19 19 19 21 21 21 20 20 19 20 19 18 18 18 18 17 16 15 16 17 16 16 16 16 16 15 15 14 14 13 12 12 13 12 13 13 15 17 17 17 17 16 15 13 13 12 12 11
11 11 8 8 10 13 9 13 19 16 21 23 25 22 13 19 10 9 4 8 4 3 8 21 25 24 14 19 17 14 19 16 23 21 16 20 21 27 26 19 21 23 20 19 18 16 15 18 19 20 20 20 20 21 21 22 20 19 19 19 18 17 16 17 17 16 15 14 15 16 15 15 15 15 14 14 14 13 13 12 12 12 12 12 13 15 17 16 16 16 15 14 13 12 12 10 9
13 12 8 11 6 10 13 16 13 19 23 21 23 23 7 9 9 8 7 5 10 6 16 24 27 27 21 21 13 10 9 7 16 16 22 23 21 24 17 15 16 22 21 20 18 16 16 22 19 18 18 20 19 19 18 18 19 18 19 18 15 15 15 15 14 15 15 15 14 14 14 14 14 14 13 14 15 14 13 12 12 11 11 11 13 14 15 15 15 15 14 13 12 11 11 10 7
15 14 9 10 6 13 13 15 13 17 19 16 21 20 7 11 7 6 5 8 6 14 17 32 28 23 18 11 10 6 6 6 14 19 19 16 20 19 11 13 13 22 24 21 18 16 16 16 23 18 17 18 18 18 17 17 17 17 16 16 15 15 16 15 15 15 14 15 15 14 14 13 13 13 12 13 14 14 13 12 12 11 10 12 13 14 14 14 15 14 13 11 10 9 7 7 5
10 13 12 8 11 11 12 14 15 18 17 12 17 8 2 10 13 8 6 4 3 9 13 19 19 26 17 16 11 8 7 9 12 15 18 17 13 17 17 13 17 22 23 22 18 16 15 15 15 20 18 18 18 19 17 18 17 17 17 16 16 15 15 15 14 14 16 14 14 13 13 12 11 11 10 11 12 12 12 12 11 11 11 11 12 14 12 13 13 13 12 10 9 9 7 6 4
13 9 8 12 12 9 16 16 18 17 13 15 6 11 15 17 8 8 4 5 9 14 13 25 28 22 12 12 10 10 9 8 10 16 16 12 13 12 11 17 19 23 22 20 19 17 15 14 15 14 17 20 17 17 17 17 17 17 17 16 16 16 16 15 15 15 15 15 14 13 13 11 12 9 11 11 11 11 11 11 10 10 10 10 11 13 13 13 13 13 11 10 9 8 8 7 5
14 12 9 13 9 12 14 12 12 12 10 6 7 16 15 9 8 7 8 8 10 10 19 24 21 24 19 15 7 9 10 11 13 14 13 11 15 16 12 14 20 22 21 19 18 17 15 14 15 15 15 13 13 15 16 16 16 16 16 16 16 16 16 15 14 14 15 15 15 14 12 12 11 10 9 9 10 8 9 8 8 9 10 10 11 13 13 13 13 11 10 9 7 7 7 7 5
16 10 13 12 14 10 10 17 13 9 15 6 8 7 5 9 8 12 8 9 8 14 15 14 26 19 18 17 12 15 17 17 17 17 15 15 16 14 18 15 17 18 18 18 17 15 15 15 15 13 13 13 12 11 11 15 16 16 16 16 16 16 16 17 16 15 16 15 14 13 12 12 11 10 8 8 8 8 8 9 7 7 10 11 12 13 12 12 12 11 10 8 5 6 6 5 5
16 10 12 10 11 9 14 15 14 14 22 3 5 12 9 6 5 5 7 7 6 8 9 13 4 13 23 18 23 21 20 17 13 16 22 22 21 18 15 10 17 18 15 17 16 15 15 16 14 13 13 13 11 10 11 11 14 14 15 15 16 16 17 17 16 15 16 14 13 11 11 10 10 8 10 7 8 7 8 7 7 7 8 10 11 12 13 12 12 11 8 5 4 5 5 4 3
9 11 11 10 14 9 11 15 10 21 5 16 10 13 11 9 7 6 4 9 8 6 20 10 8 16 22 16 25 23 19 16 16 19 18 17 15 17 13 13 14 14 14 13 12 15 16 16 15 15 13 13 13 12 11 10 13 15 12 13 14 15 15 17 17 16 13 12 10 8 7 7 6 5 6 4 6 4 4 3 9 9 9 11 12 12 12 12 12 10 8 7 5 4 4 4 3
9 14 12 12 12 13 14 18 17 9 10 11 9 10 14 11 13 10 7 6 5 10 19 15 13 12 18 26 27 25 23 20 18 20 17 14 13 16 16 11 11 12 13 12 10 13 15 15 15 15 14 13 14 13 11 10 12 12 10 10 11 14 14 13 13 10 12 8 9 8 5 6 7 5 3 7 3 4 3 3 7 10 9 10 9 10 11 10 11 10 9 8 6 5 4 2 3
14 11 10 15 12 22 16 21 20 14 8 8 8 6 7 5 7 10 13 7 5 12 19 21 23 24 22 27 25 24 22 20 17 18 18 13 15 16 14 11 11 9 11 11 10 11 13 14 15 15 15 13 14 13 13 11 10 10 10 11 13 12 15 14 8 10 7 6 5 4 5 5 6 6 4 3 3 5 4 4 6 10 9 11 9 9 10 10 10 8 8 7 6 5 3 3 3
14 9 12 15 13 16 19 19 22 14 11 6 7 7 4 4 9 6 5 5 7 13 24 16 25 22 26 24 24 24 21 19 17 19 19 16 10 12 13 12 10 10 12 13 14 11 12 13 15 15 15 14 13 13 14 13 10 10 10 10 11 10 11 13 13 8 6 4 5 5 6 5 5 8 10 12 10 3 3 5 7 9 10 10 11 8 9 8 11 10 9 7 5 4 5 7 6
12 15 15 14 12 17 16 18 14 13 6 11 9 9 11 6 8 5 7 7 10 15 16 25 23 29 26 26 26 25 24 20 19 18 18 16 11 13 10 15 15 13 12 11 10 12 12 13 14 14 14 15 14 12 13 14 12 11 10 11 10 10 14 14 12 8 6 5 5 4 5 5 6 6 2 3 6 2 3 3 5 6 5 6 8 5 7 8 7 6 5 6 5 5 7 9 7
10 12 17 17 18 21 21 19 14 18 12 9 9 8 6 13 13 8 6 7 12 4 18 25 28 29 30 26 24 26 24 22 20 19 20 16 15 14 11 14 7 8 11 12 14 13 14 14 15 15 13 13 13 12 12 13 14 10 10 10 11 11 15 15 11 8 4 2 3 3 5 4 6 6 6 4 4 5 5 5 6 6 6 6 7 5 7 6 8 8 7 6 6 7 9 9 6
21 14 12 12 14 17 13 20 11 12 12 10 6 5 8 11 7 6 10 11 7 19 24 26 25 18 21 25 25 22 22 20 18 20 22 19 19 15 20 24 22 18 17 16 14 12 14 15 15 16 15 14 13 12 12 11 9 10 10 10 11 10 12 14 10 9 6 8 6 6 4 3 6 8 7 6 1 4 6 6 6 5 4 4 7 5 5 7 9 7 9 10 9 9 10 11 10
15 16 9 17 17 20 15 18 14 2 8 5 6 12 17 12 9 4 11 19 20 27 28 24 21 17 15 17 15 20 21 21 16 15 21 21 23 26 20 21 26 23 17 21 16 15 14 17 17 16 15 16 13 13 13 11 9 11 12 12 10 12 12 11 10 9 8 8 5 8 4 3 3 6 7 7 3 2 4 6 3 3 4 7 7 6 6 3 4 5 5 6 7 7 10 11 10
18 25 14 15 16 17 17 11 12 8 5 4 4 10 13 13 9 6 10 24 24 26 27 27 24 19 14 13 14 13 15 15 16 13 10 11 18 21 24 25 23 16 17 20 22 18 18 19 19 16 15 16 14 14 13 12 11 10 10 11 11 10 9 9 9 8 8 8 5 4 7 7 7 5 5 5 6 3 3 5 3 7 8 7 7 5 3 3 3 5 3 4 6 8 9 11 11
18 13 8 6 10 14 12 14 13 8 5 5 8 11 12 12 8 17 9 12 27 23 27 24 22 21 19 14 13 11 11 13 13 11 10 7 7 7 11 8 10 12 18 22 22 20 17 17 18 18 17 17 14 13 12 14 13 12 10 11 12 12 8 8 10 11 10 9 7 5 4 7 8 8 8 7 7 5 5 4 4 7 8 4 5 5 2 3 2 1 1 3 9 11 10 11 7
5 3 5 10 14 19 17 17 8 8 11 8 11 9 13 14 13 12 10 22 22 23 24 24 21 17 14 12 11 10 13 10 10 10 11 7 8 10 17 25 18 10 14 20 17 13 17 20 17 17 17 14 14 13 13 14 15 13 11 10 11 11 10 10 9 9 9 10 8 5 5 6 5 4 7 7 7 7 6 5 3 4 7 4 6 3 4 5 5 5 5 6 7 8 10 5 7
15 10 8 9 10 11 10 8 8 7 13 13 11 13 14 14 14 15 13 24 26 26 23 23 21 17 15 13 11 9 11 11 11 9 9 9 9 13 13 26 23 7 8 6 5 8 21 18 14 14 12 13 13 13 12 13 13 14 13 11 10 8 8 8 9 7 8 6 4 3 4 4 5 3 6 6 5 7 7 6 4 5 6 6 7 9 8 6 6 6 6 4 5 5 6 1 2
11 10 12 7 13 24 14 16 14 8 14 6 6 11 14 14 13 18 21 25 25 24 22 21 23 22 18 15 13 12 11 11 10 14 8 6 8 18 18 29 26 9 4 6 10 17 17 17 15 13 14 12 12 12 11 11 15 17 15 13 11 9 6 6 6 7 7 6 6 5 5 5 3 6 9 6 4 7 7 6 6 8 6 13 12 13 10 6 4 6 6 5 7 6 4 5 5
13 12 9 10 15 20 17 16 14 13 15 9 9 14 13 15 13 11 25 31 26 23 19 16 21 21 18 14 13 14 12 12 11 8 7 11 7 17 20 28 28 18 9 10 16 12 10 14 13 13 13 14 10 10 11 17 19 16 13 12 15 13 9 7 7 6 5 4 8 7 7 7 5 9 8 3 5 6 11 9 10 13 15 13 10 7 4 3 7 7 8 7 7 6 8 2 4
10 8 9 14 7 22 15 22 15 21 15 16 11 12 15 15 20 13 30 29 27 25 21 18 21 21 20 14 14 13 11 10 12 9 10 11 13 17 22 25 26 21 9 15 15 12 10 13 14 13 12 13 13 11 14 16 15 16 14 11 12 13 14 13 10 7 6 5 8 6 9 11 5 5 8 10 7 6 13 11 11 12 11 11 9 3 3 2 5 7 6 3 2 4 3 3 6
12 12 16 11 13 25 13 17 21 25 17 14 14 10 18 15 10 18 15 27 25 24 22 19 20 19 17 17 16 14 12 9 12 13 13 13 15 18 19 26 31 24 10 13 13 13 13 10 14 14 12 13 12 11 10 14 13 11 13 13 11 9 10 10 12 12 11 6 6 7 6 13 12 4 9 10 10 7 11 11 14 14 12 8 4 4 5 4 4 6 1 5 8 13 10 11 13
14 14 10 13 15 22 21 26 17 24 9 17 17 16 9 16 5 14 11 13 23 25 23 20 20 20 19 16 15 14 14 7 9 11 14 15 16 20 19 26 30 16 11 12 13 11 13 12 15 14 13 11 9 9 11 9 13 11 8 11 13 12 8 9 9 9 11 9 9 11 15 16 13 11 6 9 10 5 10 10 13 11 8 8 2 3 2 4 3 4 8 11 14 18 13 10 10
13 15 19 16 16 12 16 10 12 21 9 14 14 17 7 6 13 10 11 8 23 24 22 22 22 20 19 17 16 15 14 13 13 11 11 15 13 18 20 19 19 15 12 13 12 13 12 12 12 13 13 12 10 9 8 10 10 10 9 11 11 14 11 9 6 8 9 9 9 10 11 15 14 11 7 10 9 8 7 8 5 5 3 5 2 3 2 2 4 5 11 11 14 15 11 6 9
7 4 9 18 13 11 12 25 16 17 15 10 14 14 8 8 8 11 8 8 17 22 24 23 21 21 22 19 18 17 18 16 15 14 14 17 17 20 23 15 15 15 14 13 13 12 11 11 13 13 13 11 9 9 10 11 10 8 7 9 10 12 13 12 10 9 7 9 9 9 11 14 13 13 12 12 11 11 11 8 3 3 4 3 1 2 1 1 3 6 11 11 9 12 12 9 7
11 14 13 15 14 8 11 19 19 9 12 12 11 12 10 7 9 10 15 13 22 20 18 18 21 22 22 21 18 18 19 19 18 17 19 18 20 22 17 15 15 15 15 14 14 12 10 10 10 12 11 11 11 10 9 9 9 10 9 9 12 11 12 12 11 11 12 10 8 9 8 7 8 7 10 14 16 14 10 9 9 4 3 5 3 2 1 1 2 7 9 11 10 9 5 7 7
10 14 16 19 23 14 16 17 12 5 11 10 9 8 7 8 10 9 11 12 24 25 23 15 14 19 22 19 18 17 17 16 19 25 20 18 20 19 14 15 15 15 15 15 15 13 12 13 13 13 12 11 13 12 10 10 9 9 7 11 11 10 12 11 12 11 11 10 8 8 7 8 6 8 8 11 13 14 11 7 9 3 2 5 6 5 6 4 7 8 9 7 9 9 4 4 6
7 10 12 18 18 11 13 10 7 15 9 4 10 4 6 9 4 10 7 12 20 30 28 22 19 17 20 21 21 23 19 16 20 20 20 16 18 14 12 14 15 19 16 16 15 16 13 11 11 13 12 12 12 13 13 10 8 12 12 11 10 10 12 13 10 10 10 10 9 8 7 5 7 7 6 7 9 10 9 9 9 8 6 5 3 3 2 5 9 12 4 5 4 5 5 4 5
6 5 12 15 16 10 12 10 16 10 6 8 8 10 11 9 15 12 6 9 10 24 33 27 24 20 15 20 19 19 18 17 19 22 20 18 17 12 12 13 14 18 16 15 14 15 14 12 10 11 13 12 11 8 11 11 6 6 10 13 15 14 10 10 11 10 8 9 8 7 7 9 6 5 5 9 8 9 7 7 9 11 9 8 7 5 3 5 11 9 5 3 3 3 4 2 2
3 6 8 14 11 9 5 8 11 9 10 4 5 12 16 13 13 12 4 4 10 19 28 25 25 27 21 20 21 23 19 18 22 22 20 16 16 13 12 12 12 13 17 13 15 16 16 12 10 11 13 10 9 10 13 12 13 13 15 14 12 15 15 12 10 11 11 10 8 7 8 7 8 11 9 9 8 8 9 6 7 9 9 9 9 7 4 4 10 8 4 2 4 4 4 2 1
4 5 7 14 14 14 12 6 5 4 6 6 8 11 17 8 11 15 8 4 12 11 18 20 15 22 20 28 16 21 22 19 22 18 17 16 15 14 15 12 10 11 14 15 15 16 15 13 12 11 10 9 9 12 15 14 17 16 17 14 14 14 11 10 12 11 9 8 9 10 9 9 10 10 10 10 8 10 8 7 4 5 9 7 6 7 6 7 6 7 6 5 5 6 4 4 2
6 6 11 12 12 12 5 6 6 8 7 8 7 7 15 14 12 13 11 5 10 10 9 8 7 9 25 32 20 18 18 16 24 22 22 18 17 12 13 12 12 10 12 15 15 14 13 14 12 9 6 8 12 12 14 14 16 18 17 17 15 13 12 12 12 13 10 11 9 6 10 10 9 8 8 8 8 8 10 10 10 3 8 7 7 7 8 7 6 6 7 6 6 2 7 5 5
6 11 3 5 15 17 12 10 6 5 6 9 10 12 13 10 10 10 12 9 7 10 9 6 7 15 25 27 24 21 19 13 14 16 17 16 16 17 15 15 15 13 11 12 14 14 14 15 14 10 8 9 10 11 12 14 12 13 13 15 14 15 15 8 8 11 12 11 11 10 10 8 8 8 6 8 8 9 10 11 12 14 10 13 13 14 10 4 5 6 6 4 6 5 5 6 6
13 3 7 11 12 7 4 5 4 8 4 6 10 12 11 13 16 10 5 6 13 6 7 10 8 17 21 20 26 21 22 19 22 22 21 23 22 22 20 19 17 17 12 10 12 13 15 16 15 11 9 10 10 12 12 13 14 12 13 13 13 12 12 15 14 12 12 11 12 9 8 6 6 7 8 8 8 9 10 11 13 11 14 10 12 11 10 9 10 9 5 6 6 5 10 10 7
10 7 9 5 8 9 10 8 6 9 6 12 5 9 12 12 14 11 8 11 5 7 8 7 6 9 27 26 28 28 30 26 22 21 18 20 21 20 19 19 18 16 13 11 11 10 12 15 15 11 10 11 12 12 13 11 13 14 15 15 12 12 14 14 12 12 13 12 10 9 12 10 9 8 9 9 7 8 9 10 9 9 9 9 11 11 9 9 9 8 9 8 6 6 4 4 7
7 7 4 9 7 14 11 11 8 5 8 7 7 3 10 9 6 6 7 7 7 8 8 9 8 3 12 25 19 20 16 11 16 20 21 23 23 22 20 16 12 13 10 10 8 9 9 9 12 13 13 14 14 14 13 13 13 14 13 12 16 14 15 12 12 13 11 11 13 11 11 11 10 11 10 8 9 8 9 9 9 9 7 7 9 8 9 10 9 10 9 7 7 8 6 5 5
6 2 8 8 7 10 13 9 7 10 8 8 7 9 6 12 9 5 11 12 7 5 7 6 5 9 16 18 23 28 28 21 23 23 22 20 19 15 13 16 15 10 10 12 10 10 14 14 16 16 16 15 16 16 14 15 13 12 13 15 17 16 15 15 15 11 11 11 13 11 11 10 10 10 10 9 8 8 7 7 7 7 8 8 9 8 7 7 7 7 8 9 10 10 10 11 11
8 7 4 10 12 8 6 6 5 7 11 5 6 12 9 11 8 4 9 5 7 11 2 7 12 16 9 9 15 17 14 10 14 15 11 7 8 7 12 14 14 13 11 12 11 9 12 15 17 17 16 17 16 16 14 16 16 14 10 15 18 17 15 16 16 14 13 12 11 12 11 11 10 10 8 8 7 6 7 8 7 8 9 9 9 8 7 8 9 9 10 9 10 9 9 10 9
9 3 4 4 11 9 9 8 9 8 13 7 8 12 6 10 16 8 3 3 8 4 11 16 16 12 10 10 13 23 23 21 19 16 14 11 8 10 8 11 11 12 14 12 12 11 14 14 16 22 18 17 18 17 15 16 15 14 12 16 16 16 16 15 14 13 11 14 12 13 13 12 11 10 8 9 6 5 6 8 8 9 8 7 6 7 6 9 9 9 9 7 8 8 8 8 10
5 9 9 8 9 5 5 5 8 7 8 8 11 6 13 7 7 6 10 7 11 11 7 12 16 14 12 14 19 22 21 19 17 14 13 11 9 5 13 13 14 14 14 17 16 15 14 15 14 14 22 16 16 16 15 16 16 14 11 15 16 16 15 15 14 14 12 12 12 14 14 14 13 12 9 7 7 6 5 7 8 7 6 5 6 6 6 5 7 8 7 7 6 6 7 7 7
8 6 12 16 11 11 6 4 6 6 6 4 8 11 10 3 12 7 10 11 10 18 21 14 11 11 13 19 20 21 19 15 15 15 13 11 10 7 7 7 17 15 14 15 16 14 13 14 16 15 26 23 16 16 14 14 15 14 10 11 15 14 16 15 13 13 13 12 11 13 13 13 13 12 13 9 7 6 6 8 7 7 6 6 4 4 8 8 8 8 7 7 7 7 8 9 7
6 7 9 11 13 11 11 9 6 6 7 8 9 9 10 11 12 15 10 9 7 13 15 14 11 13 17 19 19 17 15 14 14 13 12 10 7 8 6 10 11 11 15 16 16 15 15 13 12 15 21 23 17 13 12 11 12 11 8 10 13 14 14 13 12 11 11 12 11 13 13 12 13 13 11 10 7 9 8 7 6 7 7 5 2 3 6 7 7 8 6 7 6 6 8 7 5
9 11 5 8 11 14 10 7 11 4 8 12 10 10 8 4 4 7 5 7 4 13 9 11 12 14 18 16 16 16 15 16 13 11 9 6 9 9 10 8 10 11 10 12 16 15 18 16 14 18 20 19 21 21 15 8 6 8 7 9 10 11 14 12 13 12 11 10 11 11 13 13 13 13 13 11 9 8 9 8 8 7 6 5 4 4 6 6 6 6 6 5 4 3 7 6 5
9 8 9 5 6 10 14 9 4 4 5 10 5 7 4 6 13 15 9 9 5 13 12 12 14 17 18 15 15 16 17 14 12 10 8 6 5 6 7 9 9 9 9 11 15 16 18 23 30 24 12 16 15 27 26 19 7 6 6 8 8 11 12 11 11 12 11 11 10 10 12 14 14 14 14 11 10 9 8 8 8 7 6 5 5 4 6 5 6 7 5 5 5 6 5 4 5
7 16 7 12 12 7 11 9 5 6 6 9 8 4 7 8 6 9 6 9 7 10 11 16 17 18 18 17 17 14 13 11 10 8 9 8 7 7 9 8 8 8 8 8 9 10 16 19 29 27 20 22 14 9 16 21 14 5 5 7 9 10 11 9 9 12 10 12 12 9 10 13 13 13 14 12 11 10 9 7 8 6 6 6 5 4 6 7 6 7 5 6 5 6 5 4 3
18 7 9 5 9 8 5 16 9 10 8 3 8 3 5 6 10 8 6 5 6 11 11 10 16 17 17 17 15 14 12 10 8 10 10 9 10 10 9 9 9 9 10 11 8 6 5 5 19 22 23 23 16 8 9 8 18 9 4 6 6 9 9 9 8 12 10 10 11 11 10 11 14 13 13 13 12 11 10 9 7 9 6 6 5 5 5 6 6 8 7 9 6 5 6 6 3
12 7 8 8 7 6 7 6 5 6 10 7 7 6 5 13 11 11 8 7 8 16 17 16 9 16 15 16 15 13 13 11 10 8 7 9 11 13 15 12 15 16 16 15 16 15 17 18 11 23 25 25 21 14 12 11 10 18 9 6 6 7 9 10 11 12 11 9 8 9 9 10 14 13 13 12 12 12 12 11 10 9 9 8 7 6 4 5 4 6 6 7 7 5 6 6 5
6 5 4 7 6 11 11 17 18 10 9 6 6 8 6 12 15 12 14 6 6 16 23 17 11 12 15 13 12 13 13 11 10 7 6 6 9 10 9 11 12 14 13 13 13 16 18 17 19 11 21 21 20 15 11 12 10 13 12 9 7 8 10 11 12 12 11 9 8 9 8 9 9 11 15 14 12 11 11 12 11 10 10 10 9 8 7 6 6 4 6 5 7 6 5 7 6
Wind_Speed
5 4 4 4 2 3 4 2 1 1 1 5 4 5 7 4 9 5 11 3 3 3 3 8 11 14 13 12 18 14 12 6 3 5 4 3 8 14 17 18 16 13 11 8 9 11 13 16 16 16 15 16 16 16 16 17 17 17 18 17 17 17 17 17 17 16 15 13 12 12 13 13 13 13 13 13 13 12 12 13 14 14 14 14 13 12 11 13 13 12 12 12 13 12 12 14 13
5 4 4 3 4 0 2 2 0 2 1 3 10 6 13 9 5 7 7 6 3 2 6 8 11 16 20 14 11 17 15 12 11 8 9 10 13 11 15 16 16 15 10 8 8 10 11 14 17 16 15 15 16 16 17 17 17 17 18 17 17 17 17 17 17 16 14 13 13 12 13 13 13 13 12 13 12 11 10 11 12 13 13 12 12 11 11 12 12 11 12 13 13 12 13 12 13
4 5 7 2 2 2 3 1 2 2 3 4 10 7 7 8 7 0 8 5 6 6 5 12 16 9 16 15 17 14 4 10 13 12 8 13 14 9 13 14 15 14 12 7 8 9 9 13 16 16 16 15 16 16 17 17 16 17 17 17 17 17 17 17 16 15 14 13 13 13 13 13 13 13 13 12 12 11 10 10 11 11 11 10 10 9 10 11 10 10 12 12 12 13 12 12 11
3 3 3 2 2 2 2 1 2 1 2 7 9 5 3 2 7 5 5 6 5 4 5 8 11 4 16 17 12 14 10 7 10 11 7 6 8 13 13 14 15 12 9 8 8 9 9 15 16 16 16 16 16 16 16 17 17 16 17 16 17 17 16 16 16 16 15 14 13 13 13 13 13 13 13 12 11 10 10 10 10 10 10 9 7 7 11 10 9 9 13 11 12 11 12 11 11
2 4 2 1 1 1 1 2 3 2 6 6 5 4 5 3 4 8 3 3 4 3 4 7 6 9 14 11 4 4 7 10 10 7 8 8 13 13 14 14 14 12 10 9 9 9 11 20 17 15 16 16 16 17 17 17 16 16 16 16 16 16 16 15 16 15 15 15 14 13 13 13 13 13 13 13 11 10 10 9 8 8 8 6 6 7 8 8 9 11 11 12 12 12 11 10 9
5 4 3 2 2 1 2 2 4 6 9 6 8 3 5 4 7 4 5 4 8 2 4 4 8 4 7 7 5 5 3 3 8 9 10 8 16 16 15 14 13 12 11 9 10 8 10 16 16 16 15 16 16 16 17 17 16 16 16 16 16 16 15 15 15 15 15 15 14 14 14 14 13 13 13 13 12 12 12 10 9 9 9 9 9 8 10 9 10 13 10 10 11 10 11 11 9
2 1 2 1 3 1 2 2 7 6 11 10 10 9 0 1 2 3 3 2 9 4 4 12 17 15 11 3 9 12 10 7 5 7 9 11 14 14 15 15 13 12 12 10 9 10 12 16 16 15 15 16 16 17 17 17 17 16 16 16 15 15 15 15 13 14 15 14 14 14 13 13 13 13 13 12 12 11 11 10 10 10 11 10 10 11 13 14 13 13 12 11 10 10 10 10 8
3 1 1 2 2 1 2 5 8 5 9 10 10 7 4 2 2 2 4 2 2 1 4 11 11 16 8 7 7 7 12 13 12 5 9 10 10 6 13 14 12 12 11 10 9 9 16 16 16 16 15 15 17 17 17 17 16 16 16 16 15 15 15 14 14 13 12 13 13 13 13 13 13 13 12 12 12 11 10 10 10 10 10 11 11 12 14 13 14 13 13 11 10 9 9 8 8
2 3 2 2 3 2 3 6 9 8 10 13 14 12 10 3 2 3 2 2 0 0 6 14 15 11 4 12 8 5 5 5 11 10 10 13 14 16 11 9 8 11 12 11 10 9 10 15 16 16 16 16 16 17 17 18 16 16 16 16 15 13 13 14 14 13 12 11 12 13 12 12 12 12 12 11 11 11 10 10 10 10 10 10 11 13 14 13 13 12 11 11 10 9 9 8 6
2 4 1 2 1 5 5 8 6 10 11 13 14 14 2 1 3 1 1 1 3 4 11 12 12 15 13 13 5 4 3 1 9 10 14 10 12 10 4 2 11 13 12 11 10 10 9 17 16 15 15 16 16 15 15 15 16 15 15 15 13 13 13 13 12 12 12 12 11 12 11 11 11 11 11 11 12 11 10 10 9 9 9 9 11 12 12 12 12 11 10 10 9 8 7 7 5
3 3 1 1 3 5 7 8 8 10 8 8 12 13 5 6 5 3 3 2 4 1 11 18 12 13 10 6 3 1 2 3 9 9 9 8 12 13 8 6 5 13 14 13 11 10 9 10 18 15 15 15 15 15 14 14 14 14 14 13 13 13 13 12 13 12 12 13 12 12 11 11 11 10 10 11 11 11 11 10 10 9 8 10 11 11 11 11 12 11 9 8 7 7 5 4 3
3 3 2 3 4 6 6 6 9 9 10 5 6 5 1 5 5 3 4 1 0 3 3 9 6 12 10 7 3 2 4 6 7 10 11 7 6 10 9 2 7 12 14 13 11 10 9 9 9 15 15 15 15 16 14 15 15 14 14 13 13 13 13 12 12 12 13 12 11 11 10 10 9 9 8 9 10 10 10 9 9 9 9 9 10 11 10 11 11 10 9 7 7 7 6 4 2
5 2 3 3 3 4 9 8 10 11 5 4 4 4 6 7 4 4 3 4 4 6 7 10 15 8 4 5 3 3 6 5 6 11 11 7 9 6 7 3 8 14 13 13 12 11 10 9 9 8 12 16 15 14 14 14 14 14 14 14 13 14 13 13 13 12 12 12 12 11 10 9 8 8 9 9 9 9 9 9 8 8 8 9 9 11 11 10 10 10 8 7 6 5 5 5 2
4 4 2 4 4 4 5 6 7 5 5 2 1 2 3 2 4 5 6 5 7 5 11 16 8 16 9 6 2 3 5 7 8 9 8 7 9 9 9 5 7 12 13 12 11 11 9 9 9 9 9 8 8 11 13 13 13 13 13 13 14 13 13 12 12 12 13 13 12 11 10 10 9 8 7 8 8 7 7 7 7 7 8 8 10 10 10 11 10 9 7 6 5 4 4 4 3
6 3 2 3 5 4 4 6 8 5 7 3 2 1 2 3 4 7 5 4 3 9 4 7 11 8 6 9 3 5 8 10 9 10 9 8 8 9 12 5 5 11 10 11 11 10 10 9 9 8 8 8 8 6 6 10 13 13 13 13 13 13 13 14 13 12 12 11 11 11 10 10 9 8 6 7 6 7 7 7 6 6 8 9 10 10 10 10 10 9 7 6 4 4 3 2 2
5 3 2 3 5 4 5 6 7 5 7 3 3 6 2 3 3 3 2 2 0 3 5 3 2 3 11 12 14 12 12 11 9 9 10 9 5 5 9 7 4 9 9 10 9 9 9 10 8 8 8 8 7 6 7 7 11 12 12 13 13 13 14 14 14 12 12 10 9 9 9 7 8 6 8 5 7 6 7 5 6 5 7 8 10 10 10 10 10 9 7 4 3 3 2 3 1
4 3 4 2 7 5 4 5 5 6 1 5 6 8 5 2 5 3 2 6 3 2 9 2 2 9 14 8 16 16 13 10 10 11 10 7 5 5 6 5 6 5 6 7 7 9 10 10 10 8 8 9 8 7 6 6 8 12 9 11 12 13 13 14 13 12 10 8 7 6 6 4 4 3 4 3 5 2 4 3 7 7 7 8 10 10 10 10 10 9 7 6 4 3 2 1 1
3 4 4 6 6 7 7 8 7 4 0 6 4 5 5 7 6 3 4 4 3 7 11 7 9 7 10 15 18 17 15 13 12 14 10 8 7 8 7 5 5 6 6 6 6 8 9 9 10 9 8 9 9 7 6 5 6 9 7 7 7 9 11 11 8 5 6 3 6 5 3 3 4 3 2 4 2 2 2 2 6 8 7 8 8 8 9 9 9 9 7 7 5 3 2 0 1
4 3 3 8 5 9 8 10 12 6 3 1 4 4 3 4 4 2 4 4 3 8 6 13 12 14 15 16 16 17 15 14 12 12 12 9 9 11 8 6 6 5 6 6 5 7 7 8 8 9 9 8 9 8 6 6 6 6 6 7 7 9 10 8 4 5 4 4 3 2 3 3 4 4 2 1 2 3 2 2 5 8 7 9 7 8 8 8 8 7 7 6 5 4 1 2 2
6 3 5 7 4 7 12 12 12 3 4 4 2 3 3 1 3 2 1 4 5 5 9 7 15 12 16 16 16 16 15 13 12 13 12 10 7 7 7 6 6 6 7 7 7 6 7 7 9 9 9 9 8 7 7 7 6 6 6 6 6 6 6 5 4 4 3 3 2 1 2 2 3 4 6 7 6 2 1 3 6 8 8 8 8 6 7 7 9 8 7 6 4 2 2 3 4
3 6 5 4 4 6 8 11 4 8 5 4 6 6 6 4 3 1 3 4 3 1 11 13 14 16 16 16 17 16 16 14 13 12 12 9 7 7 4 2 7 7 6 5 5 7 7 7 8 8 8 8 8 6 8 7 6 6 6 6 6 6 7 3 3 2 2 1 1 1 2 3 3 4 1 2 4 1 1 1 2 3 2 3 5 2 3 3 4 3 3 3 3 3 3 4 3
2 6 10 11 9 10 14 12 3 2 5 6 6 4 1 7 5 1 3 3 3 2 12 16 18 20 19 16 15 15 16 15 14 14 13 10 10 8 6 6 4 4 5 6 7 6 7 7 8 7 8 8 7 6 6 7 7 6 6 6 6 6 7 5 5 3 2 1 0 1 1 3 3 4 3 2 3 3 3 3 3 2 2 2 2 2 2 3 3 3 3 3 4 4 4 3 4
8 6 6 6 9 9 6 9 6 3 1 1 1 2 4 1 3 1 3 1 3 3 16 15 15 11 13 13 14 13 14 14 12 14 15 12 11 9 1 8 6 6 6 7 7 6 7 7 9 8 8 8 7 6 5 6 5 6 6 6 6 6 6 5 4 3 3 2 2 0 0 2 4 5 4 2 1 3 4 4 2 2 3 3 4 2 2 3 4 4 5 5 5 5 5 5 5
8 5 5 11 12 13 10 9 9 2 3 1 1 5 6 5 5 1 1 1 14 16 19 16 13 12 10 10 6 10 12 12 10 10 14 14 16 14 11 11 9 6 6 7 7 7 7 10 10 10 8 9 7 7 6 6 5 6 6 6 6 6 6 5 4 3 3 3 2 2 1 2 2 4 5 4 2 1 1 0 2 2 3 3 4 4 2 2 3 3 3 4 5 4 5 5 5
9 11 9 8 7 8 9 8 8 6 2 2 4 3 8 8 5 2 1 17 14 15 18 17 14 13 10 8 8 7 7 6 9 9 7 7 13 14 15 10 14 8 8 8 7 7 9 10 10 9 9 10 7 7 7 6 6 6 6 6 6 6 5 5 3 4 4 3 3 3 4 4 4 3 3 3 3 2 2 2 1 4 4 3 4 3 1 2 2 3 2 2 3 4 5 5 6
8 8 5 4 4 5 8 9 9 6 2 1 3 6 7 9 5 4 3 9 18 14 17 16 14 13 12 9 8 7 6 6 7 7 7 4 4 6 5 3 5 7 12 12 9 7 7 10 11 10 10 10 8 8 6 7 7 7 6 6 6 5 5 5 5 4 4 4 5 3 3 4 4 4 3 4 4 3 3 2 3 4 3 2 3 3 2 2 2 1 1 2 4 5 5 6 5
3 2 1 2 5 7 10 12 6 3 4 4 6 5 5 8 4 4 3 14 15 15 16 16 14 12 9 7 6 6 8 6 6 6 7 4 5 4 7 7 11 5 9 13 10 7 7 9 9 11 10 8 8 8 7 8 7 6 6 5 6 6 5 6 5 4 3 3 3 3 2 3 2 2 3 4 4 4 4 2 2 3 3 2 2 1 3 4 4 3 3 4 3 5 5 4 3
9 6 3 5 5 5 6 5 5 1 5 8 6 8 9 8 4 7 8 14 17 18 16 16 14 11 9 9 7 6 7 7 7 5 6 4 5 3 8 7 12 2 5 4 3 5 12 8 7 8 8 7 7 8 7 7 7 7 6 6 5 5 5 5 5 4 5 4 2 2 3 3 3 2 3 3 3 4 3 3 3 3 4 2 4 5 3 2 2 3 4 3 3 3 4 1 2
7 6 7 4 6 9 9 8 6 4 4 3 4 5 7 6 4 8 14 14 15 16 15 15 15 13 12 10 8 7 7 7 6 5 3 3 3 0 8 9 10 5 3 4 6 10 11 8 9 8 9 7 7 7 6 7 7 7 6 5 5 4 4 4 4 5 4 3 3 3 3 2 2 4 3 1 3 4 3 3 4 3 3 7 6 4 2 3 3 4 4 3 4 4 3 3 1
6 8 4 5 4 9 9 7 8 8 5 6 4 5 8 9 8 6 17 15 16 16 13 11 12 10 9 8 8 8 8 7 6 4 3 7 3 2 10 10 9 14 4 4 9 7 5 6 7 7 8 8 6 6 6 9 9 7 6 6 5 4 4 4 4 4 3 3 5 4 3 2 3 5 4 2 2 4 5 3 1 7 7 6 4 3 2 0 2 3 5 3 4 3 4 1 3
4 3 1 4 3 8 7 7 10 14 7 10 6 5 8 8 13 7 19 18 18 14 13 12 13 11 10 9 8 8 6 6 8 5 6 8 4 3 13 10 7 16 2 7 9 6 5 8 7 7 7 8 8 7 9 9 7 7 7 6 5 6 6 5 5 4 3 2 5 4 5 3 3 4 5 5 2 3 6 2 6 6 1 2 2 2 1 1 2 3 3 2 1 2 1 2 3
3 2 6 3 6 12 7 11 14 13 6 8 9 5 9 9 6 12 12 18 17 14 12 13 13 12 10 9 10 8 7 6 8 9 9 8 3 5 12 8 4 17 4 7 7 7 7 7 9 9 8 9 8 7 7 9 7 6 5 5 6 5 4 3 4 4 4 3 3 4 3 5 4 2 5 6 2 2 4 6 8 4 2 2 2 1 1 1 3 3 1 2 5 6 5 4 7
3 7 5 4 6 12 8 12 11 17 3 9 11 6 3 6 3 8 7 10 16 16 13 13 14 13 12 9 9 8 7 4 5 8 10 10 10 10 11 12 13 12 7 8 8 7 8 8 9 9 8 7 6 7 7 6 6 5 5 6 5 4 5 5 5 5 4 5 5 7 8 4 4 3 4 5 5 2 5 6 2 5 2 2 1 3 1 2 2 1 4 5 7 3 4 4 5
5 4 8 8 9 7 7 5 7 14 4 7 9 4 2 3 5 6 5 6 17 14 14 14 13 10 11 10 10 9 8 7 7 5 6 7 7 8 12 11 12 9 8 9 8 9 8 8 8 8 8 8 7 6 5 6 5 5 5 7 6 5 3 2 4 5 5 6 6 6 8 8 6 4 4 6 5 4 3 4 0 2 2 3 1 2 2 0 1 3 6 5 5 4 2 2 1
3 2 5 8 7 7 6 5 6 11 6 6 6 7 3 4 2 7 5 7 12 14 13 14 13 13 12 10 9 10 9 9 9 8 8 7 10 8 8 8 9 10 8 9 9 8 7 7 8 8 8 7 6 6 6 6 5 4 4 5 7 7 6 4 4 4 3 4 6 6 7 8 6 5 6 5 6 6 6 4 2 2 1 2 1 2 1 0 2 3 7 5 2 4 5 2 1
4 6 5 5 5 5 6 9 8 6 7 8 7 6 5 4 5 5 9 6 16 11 11 9 11 12 13 12 10 10 8 8 9 10 12 8 8 8 7 7 8 9 9 9 9 8 7 6 6 7 7 7 7 6 6 6 5 5 5 5 6 7 7 6 5 6 6 6 5 5 5 5 5 4 5 5 3 3 2 1 1 0 2 3 1 1 0 1 1 5 5 6 5 2 2 2 3
4 7 7 9 11 9 9 9 7 3 6 4 4 5 4 4 6 6 6 7 16 14 16 10 8 10 12 11 11 11 10 10 11 12 12 11 11 9 8 9 9 10 10 10 10 8 8 8 8 8 7 7 8 7 6 5 5 5 4 6 7 6 7 6 6 6 6 6 5 5 4 5 4 5 5 7 5 3 2 3 2 1 1 3 3 2 2 2 2 2 3 4 5 4 1 2 2
3 4 6 10 8 6 5 6 2 6 4 1 4 2 4 3 2 4 2 8 14 15 14 14 13 12 12 13 14 15 12 8 13 10 11 10 11 10 7 8 10 12 10 10 10 10 8 7 8 8 7 7 7 8 7 5 5 6 5 5 6 6 6 7 5 6 6 5 5 5 4 4 4 5 4 4 5 4 3 4 3 2 2 2 2 2 2 3 4 0 0 3 2 3 1 1 3
4 3 6 7 8 5 8 5 5 5 2 2 4 6 7 5 6 3 4 4 6 14 17 16 15 11 9 11 12 12 11 10 12 13 12 10 11 7 8 8 9 11 10 10 9 9 9 7 7 7 7 7 7 5 6 4 2 3 5 5 7 5 4 5 6 5 4 6 5 5 5 5 4 3 4 5 5 4 3 4 4 5 4 2 2 1 2 3 5 1 1 1 2 2 2 1 1
2 4 3 7 5 3 1 2 5 6 3 0 3 5 8 6 5 7 3 3 5 13 16 16 16 15 13 13 13 13 12 10 14 14 12 10 10 7 7 8 7 8 10 8 9 10 9 7 7 7 8 6 5 5 8 7 7 9 8 8 7 8 7 6 5 6 6 6 5 4 5 4 5 6 5 5 5 5 4 3 4 5 4 3 4 3 2 3 4 3 1 1 2 2 1 0 0
3 3 3 5 8 3 2 3 2 1 4 2 4 5 7 4 5 7 4 2 7 8 13 13 10 14 14 12 11 13 14 13 14 12 10 11 9 9 9 8 7 7 9 9 10 9 7 9 8 7 6 5 6 7 9 9 10 10 9 8 8 8 6 6 6 6 5 4 5 6 6 6 6 6 6 6 5 6 5 4 2 3 4 4 4 4 4 3 3 3 3 2 1 3 2 1 0
2 4 7 8 7 6 0 1 3 3 2 3 3 1 4 8 8 7 6 2 6 5 7 7 6 7 14 12 12 10 9 11 16 15 14 12 11 7 7 7 7 6 7 9 9 9 8 8 8 6 4 4 7 8 9 8 9 10 9 9 8 7 7 6 7 7 6 6 5 4 6 6 5 5 5 5 5 4 6 6 5 2 3 4 4 3 3 4 3 2 3 4 3 1 4 2 2
1 4 2 3 7 8 9 4 2 1 1 3 5 6 3 5 5 5 7 3 4 4 6 3 4 10 12 14 11 11 11 8 9 10 11 10 10 10 8 8 9 7 6 7 9 9 10 10 9 7 5 5 6 7 8 8 7 7 8 9 8 8 9 4 4 6 7 6 6 6 6 5 5 5 4 5 5 6 6 6 7 8 6 7 6 6 4 3 3 3 2 3 4 3 3 2 3
4 1 3 5 5 5 2 1 0 2 1 3 3 6 3 4 8 6 2 2 4 2 5 7 6 13 12 12 11 12 12 11 13 14 14 14 14 14 13 12 10 10 7 6 8 8 10 11 10 7 4 5 5 6 7 8 8 7 8 8 8 7 7 8 8 7 7 6 7 6 5 4 4 5 5 5 5 6 6 6 7 6 6 5 6 6 5 4 5 3 2 3 3 3 4 5 4
3 5 7 4 4 5 7 5 1 3 4 6 2 2 1 2 6 6 5 7 3 5 5 4 5 8 19 14 17 16 19 17 14 13 12 12 13 13 12 12 12 11 8 7 7 7 8 9 9 7 5 5 5 6 7 7 8 8 9 8 7 6 8 8 7 7 7 7 6 5 7 6 5 5 6 6 5 5 5 6 6 5 5 5 6 6 5 5 5 5 5 4 3 3 2 2 3
4 3 1 3 4 5 5 5 5 2 3 2 3 1 2 3 2 3 4 3 4 4 5 6 5 1 8 15 13 12 7 6 10 13 14 15 15 14 13 11 8 8 6 6 5 6 6 4 7 9 6 5 6 6 7 8 8 8 8 7 10 9 8 7 7 7 6 7 7 7 6 6 6 7 6 5 6 5 6 5 6 6 5 5 5 5 5 6 6 6 5 4 4 5 4 3 3
4 1 3 2 1 3 4 3 2 5 2 3 4 5 2 2 4 3 1 3 3 4 4 4 4 7 11 12 13 10 10 12 12 13 12 12 11 9 8 10 9 6 6 6 6 6 4 6 5 3 8 5 7 7 7 9 8 8 8 9 11 11 10 9 9 7 7 7 8 7 7 6 6 6 6 5 5 5 5 4 5 4 5 4 4 4 4 4 4 4 5 6 6 6 6 6 6
5 2 1 6 6 2 1 1 2 1 3 2 3 5 4 2 3 2 5 2 4 7 2 5 9 10 6 7 8 10 8 4 7 8 7 5 5 5 6 8 7 7 6 6 5 5 6 4 5 5 2 7 7 8 7 9 8 8 7 10 11 11 10 9 10 9 8 8 7 7 7 7 6 6 5 5 4 4 5 5 5 5 5 5 5 5 4 5 5 6 6 5 5 5 5 6 5
4 1 3 2 2 2 2 3 3 1 4 2 5 8 2 2 7 4 2 2 3 1 7 10 10 8 7 7 9 15 13 11 10 7 5 4 6 6 6 6 6 7 8 7 7 6 7 7 5 8 3 5 9 9 8 9 7 7 8 10 9 9 9 9 8 8 7 8 7 8 8 7 7 6 5 6 4 4 4 5 5 6 5 4 4 4 4 5 5 5 5 5 5 5 4 5 6
2 4 4 3 1 0 1 1 1 1 3 3 4 4 5 2 3 4 7 3 6 6 5 7 11 9 7 10 12 13 11 10 9 9 7 5 4 1 7 8 9 8 8 9 9 8 7 9 7 4 6 5 7 8 7 7 7 6 6 9 8 8 9 8 8 8 7 7 7 8 8 8 8 7 6 5 4 3 4 5 5 4 4 4 4 4 4 4 4 5 4 4 4 3 5 4 4
3 2 7 8 4 3 1 1 1 2 2 1 2 3 2 1 3 5 5 6 7 11 11 6 7 8 10 12 12 12 11 8 8 8 6 6 4 5 2 5 7 9 9 9 9 9 8 8 10 9 8 6 7 8 5 6 5 4 4 7 7 7 9 8 7 7 7 7 7 8 8 7 8 7 7 6 4 4 4 5 5 5 4 4 3 3 5 5 5 5 4 4 4 4 5 5 4
1 2 4 6 5 5 4 3 1 2 1 2 2 2 5 4 6 6 4 5 5 9 10 9 6 9 11 12 11 9 9 8 7 7 7 6 5 6 4 3 7 6 8 9 8 8 8 6 7 9 9 4 3 3 1 1 2 1 2 6 6 8 8 7 7 6 6 7 7 8 8 8 7 7 7 6 5 5 5 5 4 4 5 4 2 3 4 4 4 4 4 4 4 3 4 4 3
2 5 0 4 5 7 2 1 3 2 3 3 2 3 3 1 0 5 2 3 1 8 6 7 8 10 12 9 10 10 9 9 8 7 5 5 6 6 6 6 6 7 6 8 9 9 11 10 8 9 6 5 7 10 6 5 3 1 0 4 6 7 9 8 8 6 6 6 7 7 8 8 8 8 7 6 6 5 6 5 5 5 4 4 3 3 4 4 4 4 4 3 2 2 3 3 2
2 2 4 2 3 6 5 3 1 1 1 3 2 3 1 3 3 5 4 6 2 8 5 9 10 11 12 9 8 10 10 9 8 7 5 4 3 4 5 6 6 6 6 7 9 9 9 10 11 8 6 6 7 6 2 4 2 1 1 2 4 5 7 7 7 7 6 7 5 6 7 8 8 8 8 6 6 6 5 5 5 4 4 4 4 3 4 4 4 4 3 3 3 3 3 2 2
1 7 1 3 2 2 5 3 1 0 1 1 3 2 0 1 2 3 3 5 4 7 7 11 11 12 11 11 11 9 9 7 6 4 6 5 4 5 6 6 6 6 5 5 6 7 10 10 11 11 10 12 5 3 4 4 1 2 3 4 4 5 5 6 6 7 6 7 7 6 7 8 7 7 8 7 7 6 6 5 5 4 4 3 2 2 4 4 4 4 4 4 4 4 4 3 1
6 3 4 2 4 4 2 5 3 5 3 1 3 1 0 2 4 6 4 3 4 8 8 6 10 10 11 10 9 9 8 6 5 5 5 5 7 6 6 6 6 6 7 7 6 4 4 3 14 14 15 14 10 6 4 4 1 0 3 2 4 4 5 5 5 7 6 6 7 7 6 8 9 7 7 8 7 7 6 6 5 6 4 4 4 2 3 3 3 4 4 5 4 3 4 3 2
6 3 2 3 1 1 2 2 2 1 2 2 2 2 2 3 4 5 6 3 6 11 10 9 4 7 9 10 10 9 8 7 6 4 4 6 7 6 7 7 9 8 8 8 8 8 9 10 7 15 17 17 13 9 7 7 4 4 2 4 4 4 5 6 7 6 6 5 4 5 6 7 8 8 8 7 7 7 8 7 6 6 6 5 4 4 3 4 3 3 2 4 4 3 4 3 3
1 3 2 3 3 5 4 7 3 1 2 1 1 2 2 5 2 4 6 5 2 11 15 9 7 6 8 8 8 9 8 7 6 5 4 4 6 6 5 7 7 8 8 9 8 10 11 11 9 5 12 13 13 9 7 5 6 6 5 5 5 4 5 6 8 7 7 5 5 5 5 5 7 8 9 9 8 7 7 8 7 6 6 6 5 5 4 4 3 3 3 3 3 3 3 4 3
Wind_Direction
301 276 256 242 244 240 327 201 59 285 119 248 257 245 249 218 235 276 277 300 37 353 31 55 49 69 73 97 89 73 39 59 309 140 180 140 121 112 116 119 116 117 121 129 129 125 124 126 128 130 129 128 125 122 120 123 121 121 121 120 121 121 121 120 118 117 115 112 107 108 107 105 102 99 96 94 93 93 92 93 94 93 93 96 98 94 93 95 95 94 94 91 89 92 99 100 97
295 291 251 236 250 179 290 168 25 253 189 318 256 236 249 263 286 263 267 59 95 84 40 61 51 84 92 100 100 77 48 46 60 83 89 115 111 105 119 121 124 121 126 132 127 123 122 127 128 128 128 125 123 121 122 122 122 122 120 121 121 123 122 120 120 119 119 116 112 108 108 107 106 102 99 97 93 93 94 97 98 99 100 100 99 101 100 97 95 93 90 90 88 92 101 102 101
321 338 326 255 270 230 282 319 250 214 180 235 259 220 264 262 280 35 79 58 55 57 50 64 54 48 83 74 58 76 103 71 82 83 97 120 111 128 121 122 119 122 129 130 125 119 121 128 128 128 125 123 123 121 122 121 119 120 118 119 122 122 122 122 121 121 122 119 115 111 109 107 107 106 104 100 98 96 96 96 99 100 103 104 107 102 99 93 89 91 99 96 91 89 88 89 101
301 269 236 339 300 125 292 313 188 188 238 240 270 267 265 223 109 88 43 87 59 32 41 52 59 336 82 78 90 78 93 82 93 114 130 139 122 129 126 122 121 122 125 127 122 119 122 132 126 125 124 122 122 122 121 118 118 117 119 121 121 122 123 122 121 123 123 122 117 114 112 112 111 109 106 104 102 99 97 95 101 105 107 110 100 103 97 99 100 98 97 99 95 90 87 89 98
310 275 218 255 261 254 192 201 208 149 237 238 243 294 283 330 126 118 104 81 127 82 52 118 91 60 70 72 54 75 94 111 113 111 107 95 117 122 126 127 125 128 129 123 119 119 127 132 126 124 123 123 123 122 120 120 118 120 122 121 122 122 122 121 123 123 123 122 119 117 114 112 111 107 104 102 96 95 99 105 109 112 117 128 126 97 98 95 97 96 96 91 97 97 96 97 93
270 286 259 165 210 267 353 316 287 250 231 247 265 275 300 349 23 45 131 135 109 98 102 69 121 139 58 54 33 69 16 76 107 86 101 111 119 127 132 132 129 130 125 117 117 120 127 126 123 122 122 122 122 120 119 119 121 123 122 122 122 121 121 122 124 123 123 122 119 116 112 111 110 108 106 103 101 97 92 89 88 92 92 95 99 103 89 82 90 103 106 102 97 99 106 105 105
267 7 307 140 292 264 208 245 260 251 260 244 249 259 315 211 104 337 57 33 10 39 64 100 100 97 90 117 62 30 32 60 91 55 94 125 124 138 140 133 127 123 118 118 116 118 123 120 119 121 123 123 122 122 123 124 124 123 122 121 121 120 120 122 122 122 121 119 117 116 114 110 109 108 107 105 102 99 97 96 98 98 98 97 93 92 97 97 101 100 97 99 100 104 107 111 114
254 331 251 114 265 124 272 241 257 251 270 256 262 272 238 170 176 114 69 81 107 79 156 110 102 83 53 80 97 50 36 67 95 82 90 122 128 127 133 121 118 115 116 115 116 119 124 118 120 123 123 123 122 124 125 124 123 122 122 122 120 120 121 120 118 117 115 115 114 112 111 110 110 110 110 110 106 103 104 105 103 101 104 103 102 101 104 105 104 106 110 111 114 114 115 121 130
254 172 262 326 287 267 266 241 245 244 258 267 269 262 246 227 103 70 56 17 141 290 130 119 109 87 134 80 82 63 48 49 103 103 88 40 23 24 11 32 97 117 113 116 118 118 120 123 122 123 125 124 123 124 124 123 121 122 122 122 121 119 120 118 117 115 114 111 111 111 111 112 111 112 115 116 115 113 112 111 108 107 105 105 106 109 111 113 113 115 116 120 122 126 132 137 147
260 170 271 208 177 253 252 267 254 246 238 249 259 258 78 52 120 110 120 84 287 9 67 89 93 115 122 107 105 13 109 21 102 78 67 82 80 71 65 176 138 116 114 120 121 122 124 126 121 120 120 121 121 120 120 120 120 120 120 118 117 118 117 116 116 113 111 111 110 112 113 114 117 119 121 123 123 123 119 117 114 112 112 113 112 115 118 119 119 121 122 124 129 133 132 136 143
269 196 206 299 271 268 257 263 253 271 260 267 255 260 173 173 172 108 85 351 28 354 107 95 78 114 108 72 81 140 105 116 89 93 95 108 121 129 141 255 129 123 125 125 126 123 122 122 121 114 115 115 115 116 117 117 115 115 116 117 119 118 117 117 117 115 115 115 115 115 116 119 123 127 127 127 127 126 126 123 124 123 122 123 121 120 124 121 121 122 124 126 129 123 118 122 152
283 255 163 215 244 227 249 246 268 273 275 267 271 284 166 78 77 90 94 138 142 266 224 121 162 122 91 120 136 140 142 81 104 121 121 119 94 123 141 265 132 128 123 123 123 119 117 117 116 117 110 113 114 115 116 117 119 121 122 122 121 120 119 118 118 118 118 117 115 114 115 116 118 122 118 122 124 125 126 128 129 131 133 134 133 132 130 128 124 126 130 136 126 116 118 114 143
222 268 253 249 240 232 254 265 264 271 296 300 308 321 108 104 89 42 55 33 16 8 24 121 140 110 116 101 107 146 133 125 133 125 118 113 104 75 38 262 150 123 120 124 123 120 116 114 111 110 112 112 111 114 116 118 121 122 123 123 123 122 122 121 121 119 119 116 115 113 112 114 112 108 125 124 128 128 129 133 136 137 136 137 135 131 136 135 132 135 139 140 130 125 122 117 115
210 207 214 258 261 268 262 264 276 304 280 254 55 45 38 62 55 77 53 28 3 31 134 119 101 90 82 99 72 155 161 151 148 113 115 110 123 119 131 250 144 119 126 127 123 123 117 115 113 113 111 108 112 113 115 118 119 122 122 122 121 122 121 118 117 116 114 113 111 114 121 125 128 125 128 125 126 122 126 134 142 145 140 138 140 139 140 141 142 142 146 144 138 126 117 120 128
226 229 240 236 270 299 270 281 276 283 284 261 230 111 316 70 116 81 82 9 6 91 117 90 130 97 198 138 194 185 162 163 144 124 113 104 107 122 134 184 162 122 122 126 127 123 120 116 117 117 113 112 109 112 117 122 123 123 124 123 123 121 117 115 112 114 118 117 117 122 131 134 135 135 121 116 111 124 138 137 145 149 147 144 142 144 145 145 148 148 150 144 139 134 123 118 122
210 231 216 254 261 262 275 268 282 295 286 304 328 344 91 52 16 83 52 156 337 103 118 125 284 156 167 155 164 156 150 150 140 133 121 118 112 74 86 107 164 121 133 134 132 125 121 122 125 122 123 122 118 117 120 124 126 126 127 125 124 119 117 115 114 114 114 113 117 126 132 138 143 137 129 120 116 124 144 146 146 151 151 151 147 151 153 152 151 151 150 140 137 148 136 121 154
269 225 278 281 278 269 262 269 261 254 56 24 358 30 26 64 355 30 114 75 352 70 85 85 93 129 159 140 138 135 138 124 118 118 114 112 104 89 73 67 112 128 129 122 125 128 126 132 137 131 136 132 127 120 115 119 130 126 122 121 121 119 117 116 115 110 109 116 126 138 139 123 106 124 123 102 136 123 116 151 151 154 154 156 156 157 155 155 156 154 148 155 151 153 150 145 189
254 218 207 249 233 261 253 254 254 294 106 335 32 61 14 23 354 65 334 99 183 73 88 53 55 49 107 118 125 129 128 121 121 123 127 123 124 124 124 135 125 140 121 117 120 131 132 140 142 136 140 139 134 129 128 125 126 125 123 121 116 115 116 112 109 122 124 146 149 157 137 124 114 90 95 143 121 163 144 140 151 157 163 164 160 158 153 158 167 164 156 159 161 154 167 212 301
215 239 172 227 220 246 259 266 279 339 320 132 25 46 73 67 359 33 2 340 29 74 72 99 81 84 95 111 120 125 129 132 130 127 133 131 131 135 132 130 123 104 117 131 135 138 138 140 142 143 146 142 136 133 131 136 134 135 131 121 121 123 124 119 124 133 165 157 174 184 126 105 117 105 97 117 143 170 154 165 159 159 165 170 166 160 157 160 170 164 157 160 161 161 178 262 269
225 220 235 250 247 265 263 270 290 294 309 15 0 72 0 39 20 56 77 351 351 104 123 96 112 121 125 130 131 132 132 139 135 136 136 135 119 112 117 124 128 144 149 152 148 145 149 148 152 152 150 143 136 137 138 146 151 142 134 123 124 126 116 114 144 161 136 149 129 157 93 137 124 121 162 178 169 148 161 169 176 167 170 167 166 164 161 159 170 169 167 165 159 178 206 243 253
190 200 240 250 257 266 268 286 329 348 26 30 27 2 5 17 346 124 53 338 309 51 143 139 140 142 140 140 138 137 139 141 141 134 118 98 85 73 42 177 162 165 161 145 145 156 161 155 146 150 142 141 141 139 142 155 154 138 136 129 132 129 109 120 191 148 59 36 76 166 164 137 112 122 121 89 102 143 124 165 181 160 146 144 151 134 138 156 147 150 157 161 173 205 227 239 245
281 210 214 231 252 263 268 273 315 30 32 19 350 359 326 326 332 205 158 206 249 191 153 146 152 147 146 146 144 143 143 142 138 114 124 133 114 111 132 258 227 180 141 151 169 162 161 156 143 139 139 142 145 144 147 154 149 133 124 126 120 112 115 144 203 125 156 156 117 224 183 108 107 106 100 100 146 167 169 179 173 155 147 147 132 134 147 144 149 152 159 172 206 225 233 236 235
225 253 251 234 237 246 279 301 290 73 40 1 31 312 332 279 271 239 318 224 126 106 146 137 135 135 134 138 142 137 142 143 136 130 135 128 127 126 75 281 214 175 171 163 166 168 158 149 144 147 140 136 144 145 140 129 128 121 117 124 124 119 129 161 207 174 184 161 143 269 172 106 115 112 114 123 132 164 174 170 166 168 165 135 158 157 177 167 164 171 179 192 203 216 237 238 233
225 248 222 241 251 262 271 275 302 324 155 281 343 342 325 313 307 319 279 301 103 105 108 113 119 116 119 123 127 136 143 142 129 126 136 140 141 149 156 246 249 178 171 156 160 160 161 150 153 156 138 143 150 145 133 126 123 127 138 128 119 129 135 164 199 177 184 165 160 188 185 119 118 114 132 145 168 93 143 162 148 130 98 82 91 58 46 132 147 183 153 177 196 218 236 246 236
227 236 236 259 275 276 285 279 282 297 357 20 1 308 274 277 268 5 0 102 103 105 105 110 116 113 110 110 113 121 121 114 114 115 112 120 139 150 157 207 225 173 164 152 166 160 162 154 154 147 143 148 152 141 142 137 132 126 128 128 133 137 135 153 174 170 181 183 162 178 174 157 148 142 136 139 137 106 52 45 64 81 95 98 105 85 88 95 126 162 167 185 219 231 236 251 242
237 236 217 213 244 290 295 293 287 268 263 181 246 245 256 259 283 267 279 122 119 119 107 110 112 114 113 109 117 121 118 109 100 94 100 95 103 144 168 223 173 149 143 160 169 172 156 154 158 148 151 153 149 144 141 138 140 133 137 136 137 127 139 159 163 167 181 172 162 203 178 152 148 154 149 137 135 131 90 58 54 75 96 102 94 121 141 143 170 156 181 210 231 233 234 240 210
272 249 293 250 249 252 261 264 250 286 252 200 217 244 252 252 215 268 130 123 114 114 110 109 107 106 97 87 82 89 97 84 87 87 73 49 53 89 77 41 300 127 133 159 167 168 147 155 160 149 151 150 145 139 145 145 140 136 133 124 124 141 152 147 150 161 159 176 180 171 151 139 141 138 139 144 140 129 108 89 57 70 85 53 70 195 182 190 188 195 203 211 232 251 246 238 208
301 295 255 271 294 270 276 293 294 257 263 206 186 236 249 249 193 223 130 131 128 120 121 114 112 113 107 96 88 74 74 61 53 62 80 94 93 98 105 91 301 110 132 157 144 147 152 154 123 138 146 144 132 142 150 144 134 136 130 124 134 148 142 122 124 145 148 141 143 151 130 135 171 121 120 119 125 116 123 122 109 91 85 121 210 209 188 176 222 234 224 227 238 264 256 216 201
278 297 301 280 281 282 275 274 270 279 265 192 187 253 262 242 222 202 142 130 126 120 121 121 119 123 128 124 112 96 92 90 85 89 94 91 63 293 85 62 318 283 33 77 92 96 116 117 102 98 113 124 140 155 151 125 131 133 135 133 139 140 119 113 136 152 153 146 151 151 140 153 117 80 58 40 103 111 125 103 68 51 203 192 197 215 201 178 208 228 247 256 267 270 255 179 122
237 252 267 321 294 266 250 245 244 243 241 210 163 263 264 264 256 188 135 132 125 121 127 119 118 122 124 121 112 104 111 104 102 122 105 78 80 290 85 61 335 301 86 104 85 86 109 102 98 92 93 97 92 89 91 122 135 130 130 142 145 133 139 147 158 156 150 144 145 152 164 108 111 108 102 23 20 94 75 65 158 211 212 187 176 169 164 156 222 224 240 223 243 250 264 200 122
316 300 261 218 273 267 228 224 217 230 204 209 148 220 262 257 250 140 144 142 137 136 136 126 125 127 131 125 119 116 119 133 131 136 115 110 127 170 80 59 316 284 124 95 98 99 95 100 94 87 86 80 79 83 94 108 121 138 149 146 149 153 171 160 157 147 139 151 124 144 105 92 72 110 140 105 24 45 100 194 225 228 213 44 43 77 116 266 246 234 208 190 294 215 118 34 60
239 277 267 262 193 260 248 215 209 216 207 195 143 235 246 253 271 155 154 144 136 131 133 134 131 132 133 133 128 129 141 148 143 140 134 124 185 153 97 118 235 266 125 110 104 102 93 91 95 98 94 92 90 91 92 112 131 143 146 146 151 161 141 154 143 154 139 104 126 94 99 123 144 148 107 109 101 62 150 203 226 220 52 63 124 178 206 291 297 269 128 93 64 34 53 52 48
226 197 246 238 209 246 264 228 203 207 179 158 147 214 271 291 196 155 151 136 123 135 143 140 135 133 130 137 135 133 130 154 142 143 141 150 190 139 134 168 200 214 129 115 116 111 106 103 102 106 106 104 102 96 99 107 115 126 139 153 164 139 140 152 147 144 157 148 143 135 121 150 164 174 111 110 121 168 215 222 250 64 89 58 59 121 140 258 275 14 70 64 90 80 63 64 59
302 229 230 228 233 238 251 170 181 189 167 152 173 211 216 296 147 134 135 122 133 136 145 140 139 139 140 142 137 141 150 149 162 144 153 181 157 146 146 173 203 160 130 122 123 121 122 113 114 114 113 116 121 116 109 106 110 109 102 114 123 142 148 123 119 127 132 149 142 135 134 141 155 159 134 132 141 152 201 232 254 100 102 103 76 125 173 195 76 92 84 75 97 102 59 78 102
261 305 273 298 280 231 135 182 205 185 148 150 184 216 221 237 216 152 121 100 129 136 144 140 139 142 144 138 140 148 156 161 166 160 165 196 141 174 152 183 199 132 132 129 122 121 119 118 120 122 122 126 119 116 111 108 111 107 104 85 89 102 119 133 118 102 116 128 124 133 131 139 152 151 148 154 165 184 191 203 140 165 148 124 153 122 155 65 69 79 100 90 84 129 150 155 90
330 307 283 282 290 266 181 184 170 170 160 133 179 222 233 220 210 182 150 162 127 130 131 133 141 143 142 145 148 157 164 167 172 167 167 177 164 175 167 191 167 140 134 131 127 128 129 129 124 125 133 133 131 125 127 126 119 126 100 77 75 78 88 84 80 86 69 51 47 60 76 97 125 142 154 163 190 194 185 131 132 71 119 142 154 100 56 97 102 91 100 113 117 106 80 84 79
333 340 328 318 335 313 111 123 181 97 124 181 202 217 222 228 203 204 183 134 124 131 145 146 149 151 151 146 149 156 168 175 175 170 167 170 175 175 165 172 150 142 137 135 138 140 144 145 137 139 149 145 138 139 144 144 139 131 108 121 125 110 98 89 83 79 75 74 69 74 78 83 77 92 127 148 176 189 150 104 133 42 76 137 169 182 174 218 113 84 142 138 132 115 92 119 123
349 348 341 326 329 320 23 57 42 68 96 298 346 350 288 324 281 244 213 131 141 151 155 152 165 163 156 155 156 161 172 168 158 165 168 163 169 171 153 156 147 147 148 142 147 150 153 146 145 152 150 157 157 161 162 163 165 165 151 138 125 120 107 98 88 76 92 86 73 57 54 73 99 96 75 78 112 154 142 134 140 152 147 140 133 122 99 82 56 107 315 75 67 125 101 129 170
16 23 321 319 303 325 337 48 78 39 64 310 9 7 318 331 318 311 206 158 151 169 153 166 162 167 160 164 157 155 165 166 155 165 165 159 166 167 145 155 153 152 151 141 150 150 150 151 155 159 167 168 173 152 134 147 124 121 110 126 117 93 85 111 112 107 85 82 70 68 61 58 59 42 66 79 71 83 120 129 154 165 163 153 132 122 99 100 109 243 53 81 81 62 100 130 202
334 317 348 285 273 352 323 315 56 28 92 174 25 10 307 320 338 339 300 142 144 160 161 163 170 170 173 169 164 165 163 157 157 164 160 158 158 152 141 149 142 148 153 144 154 155 157 155 162 170 177 178 151 145 117 114 106 105 107 114 106 112 127 119 102 94 87 82 84 66 55 72 64 63 64 68 73 81 91 110 151 154 161 160 152 139 105 87 127 177 142 90 123 108 115 117 135
291 209 241 284 293 297 68 259 12 40 359 34 36 17 320 330 344 325 306 38 121 136 147 164 179 179 169 167 154 158 161 150 154 157 158 155 152 165 157 160 143 148 162 153 158 159 162 157 164 177 181 166 147 133 121 118 106 97 104 95 98 91 80 95 98 98 109 114 87 66 68 63 67 67 61 57 51 50 59 56 66 141 145 169 137 120 120 124 146 173 150 127 118 137 145 148 216
308 259 214 229 262 290 65 316 42 19 350 274 119 18 304 292 292 270 262 52 142 160 136 166 183 146 160 163 159 161 155 149 152 160 167 163 160 153 156 161 158 168 174 164 157 157 152 154 157 177 177 145 140 136 131 123 123 129 127 124 124 124 124 118 127 134 116 102 106 104 78 74 71 65 66 74 69 64 56 51 47 45 119 76 87 98 99 110 114 143 173 157 149 173 157 144 108
281 272 284 237 263 274 262 275 54 47 129 270 126 136 264 318 302 277 275 241 211 200 134 174 128 119 150 156 160 157 155 147 155 149 156 155 163 158 168 170 176 177 189 170 156 154 152 155 159 170 168 148 145 141 133 125 123 131 134 135 140 147 143 147 138 132 122 122 110 105 113 103 101 95 79 70 62 58 60 51 52 53 55 76 79 85 76 94 128 147 149 113 137 129 78 114 130
257 237 307 330 335 339 329 317 48 237 205 333 152 127 180 299 285 262 235 251 250 190 116 122 129 121 149 150 160 162 162 163 165 169 170 168 168 171 175 178 180 185 182 167 162 156 153 159 159 157 158 147 155 146 136 139 138 140 138 140 144 144 139 140 137 134 129 128 125 124 100 88 81 86 77 71 66 66 67 59 59 61 74 75 78 78 87 80 72 62 90 114 130 125 135 129 130
209 219 218 241 13 349 338 343 253 218 178 280 286 266 99 253 266 281 313 309 89 144 140 153 139 146 154 159 167 169 180 176 162 164 165 167 173 180 176 178 183 178 173 163 166 157 147 155 152 141 151 150 163 154 144 151 149 152 152 149 138 145 134 135 133 130 132 130 116 107 101 101 91 73 80 78 65 66 68 69 61 59 71 83 83 76 67 64 68 70 62 65 72 78 111 130 121
258 239 79 61 23 329 327 317 331 8 61 304 286 292 261 276 273 309 332 246 180 182 176 166 165 218 156 165 166 171 145 136 157 162 165 176 178 180 180 171 165 171 164 152 128 124 99 91 144 145 157 162 169 164 157 164 164 158 151 146 141 141 132 129 124 133 129 121 124 120 114 106 95 88 80 76 71 67 70 70 67 65 63 68 81 88 82 74 67 64 63 67 66 67 47 63 91
178 121 314 34 70 240 279 251 79 39 29 257 237 280 171 266 271 232 93 262 195 164 133 112 117 47 98 123 145 158 162 169 176 178 170 169 172 161 149 168 171 149 156 147 143 139 117 137 93 122 167 169 173 176 169 174 176 170 154 152 147 144 140 134 131 132 122 120 125 128 124 120 110 105 96 88 87 77 73 72 69 64 65 69 73 85 93 91 81 77 60 54 55 61 57 63 66
45 77 97 36 339 312 307 308 47 99 281 262 247 249 242 245 297 270 249 227 158 111 84 123 83 89 77 77 90 155 145 95 155 162 162 130 112 136 162 172 167 161 152 154 140 133 138 134 149 124 218 183 181 184 182 183 181 175 148 154 150 148 143 142 141 145 140 133 135 128 122 110 103 99 97 88 78 80 79 80 75 66 64 66 74 84 85 91 83 75 69 76 72 69 67 66 61
168 48 28 60 296 33 331 21 359 208 204 252 14 353 359 278 226 224 231 84 66 105 129 117 109 88 79 83 88 85 93 90 82 80 90 118 156 162 178 180 161 160 166 159 151 153 147 139 162 155 198 211 191 189 189 189 184 181 151 157 152 145 141 141 143 142 147 142 136 128 124 122 118 104 105 103 109 104 89 79 75 69 63 70 64 69 88 90 90 88 87 80 75 75 79 79 70
132 155 161 123 207 42 272 263 188 290 289 275 335 301 276 231 308 340 303 238 112 95 87 105 106 103 102 82 75 86 85 82 78 80 80 82 73 176 188 176 176 168 165 162 159 156 155 149 158 176 170 251 218 197 192 190 193 184 151 156 153 140 139 142 145 145 147 143 138 139 137 140 137 140 134 134 152 132 97 107 104 97 89 72 67 70 71 87 91 93 88 79 76 74 67 65 70
221 193 161 179 145 147 215 131 195 212 210 255 203 169 253 72 237 281 313 69 63 86 91 79 83 81 71 81 85 82 85 81 83 75 79 69 64 79 68 190 185 172 160 159 163 153 144 148 155 175 201 217 233 208 193 190 191 194 145 151 147 134 139 139 146 147 144 143 143 141 143 144 138 146 143 156 142 128 119 108 105 100 93 86 71 52 61 89 89 83 82 85 86 90 76 73 64
278 245 87 101 200 131 151 192 173 230 302 347 330 189 202 181 242 293 280 25 73 88 97 88 76 70 83 76 76 75 78 84 82 78 56 39 47 39 37 52 178 159 155 157 151 135 132 134 170 178 197 220 307 259 206 214 196 185 143 140 145 134 135 137 138 142 148 149 149 146 148 148 146 142 147 143 148 134 129 120 115 119 119 106 83 69 73 88 96 94 83 87 106 106 101 96 92
271 3 34 211 174 121 147 335 250 98 48 268 200 322 341 342 18 222 189 156 112 97 103 102 81 82 85 84 77 77 69 67 64 75 77 70 44 40 36 49 75 111 132 155 158 158 153 158 167 189 174 69 49 353 12 3 346 344 327 134 141 132 133 140 146 154 152 156 150 146 144 153 142 141 147 151 143 140 135 137 133 136 131 132 132 108 112 101 102 106 113 104 80 66 104 122 107
64 321 255 347 107 131 129 188 33 109 142 257 155 215 252 197 274 248 174 177 182 117 132 94 99 94 92 93 88 83 80 75 72 66 76 72 67 66 61 49 62 95 127 139 156 167 162 159 179 170 137 118 93 116 72 328 311 339 282 167 141 138 135 137 147 158 150 141 151 137 127 137 147 151 149 153 144 141 144 140 139 142 146 140 159 144 132 126 114 130 125 121 125 102 75 47 72
175 242 258 34 355 10 319 86 322 356 290 294 307 237 95 243 236 306 277 178 159 153 136 113 104 102 100 99 97 89 83 74 57 51 49 50 59 68 74 68 57 58 74 100 119 139 152 179 195 163 157 122 138 171 163 174 196 186 217 197 153 149 144 143 149 159 150 138 149 148 137 145 140 143 144 149 144 142 147 146 141 151 143 154 164 167 148 150 131 139 123 123 130 118 110 113 120
230 240 318 195 125 189 136 187 188 119 244 88 296 274 311 259 178 251 260 81 49 48 31 84 114 117 113 106 103 102 96 91 76 59 60 56 53 48 49 53 53 56 49 34 29 43 49 92 147 152 136 134 168 216 169 161 92 316 186 164 156 163 163 155 144 155 154 143 150 149 144 134 149 148 153 155 152 150 154 154 147 157 161 159 172 197 150 171 127 159 140 144 170 131 134 128 140
12 35 330 347 331 186 102 353 55 157 189 168 198 359 316 272 310 357 6 71 139 81 48 48 61 89 97 103 106 109 109 108 105 79 63 64 65 61 57 56 57 54 55 53 51 52 44 29 103 136 134 143 167 195 174 168 143 85 303 161 167 145 136 122 117 118 117 122 122 123 145 149 138 151 152 158 160 161 159 165 157 162 170 172 173 193 164 172 127 185 150 164 180 153 148 167 162
166 150 192 176 75 31 44 299 340 36 88 199 106 223 262 272 282 343 32 338 57 107 110 104 79 71 85 91 97 107 110 112 112 114 88 70 65 62 55 57 54 58 51 51 46 52 47 46 61 90 130 147 154 177 177 152 133 149 186 198 152 138 136 127 123 125 128 129 119 117 129 123 134 157 161 161 168 168 169 168 170 165 172 175 178 181 179 158 154 165 200 158 187 174 169 176 161